Austin Bergstrom, TX

7:21 AM CDT on June 22, 2018 (GMT -0500)
Austin Bergstrom International

Weather History for KAUS - November, 2017

Change the Weather History Date:

Tuesday, November 14, 2017

  Actual Average Record
Temperature  
Mean Temperature 68 °F 59 °F  
Max Temperature 80 °F 72 °F 88 °F (1988)
Min Temperature 55 °F 46 °F 25 °F (2014)
Degree Days  
Heating Degree Days 0 7  
Month to date heating degree days 32 75  
Since 1 July heating degree days 106 126  
Cooling Degree Days 3 1  
Month to date cooling degree days 82 24  
Year to date cooling degree days 3323 2727  
Growing Degree Days 18 (Base 50)    
Moisture  
Dew Point 60 °F    
Average Humidity 77    
Maximum Humidity 100    
Minimum Humidity 54    
Precipitation  
Precipitation 0.00 in 0.10 in 0.87 in (1998)
Month to date precipitation 0.34 1.54  
Year to date precipitation 37.79 31.03  
Snow  
Snow 0.00 in - - ()
Month to date snowfall 0.0  
Since 1 July snowfall 0.0  
Since 1 September snowfall 0.0  
Snow Depth 0.00 in    
Sea Level Pressure  
Sea Level Pressure 30.10 in    
Wind  
Wind Speed 8 mph (South)    
Max Wind Speed 17 mph    
Max Gust Speed 23 mph    
Visibility 10 miles    
Events Fog    
T = Trace of Precipitation, MM = Missing Value Source: NWS Daily Summary

Daily Weather History Graph

Daily Weather History Graph

Search for Another Location

Airport or City:

Astronomy

Nov. 14, 2017 Rise Set
Actual Time 6:55 AM CST 5:34 PM CST
Civil Twilight 6:30 AM CST 5:59 PM CST
Nautical Twilight 6:01 AM CST 6:28 PM CST
Astronomical Twilight 5:32 AM CST 6:57 PM CST
Moon 3:18 AM CST (11/14) 3:41 PM CST (11/14)
Length of Visible Light 11h 29m
Length of Day
10h 39m
Waning Crescent, 13% of the Moon is Illuminated
Nov 14
Waning Crescent
Nov 18
New
Nov 26
First Quarter
Dec 3
Full
Dec 10
Last Quarter

Hourly Weather History & Observations

Time (CST) Temp. Dew Point Humidity Pressure Visibility Wind Dir Wind Speed Gust Speed Precip Events Conditions
12:53 AM 63.0 °F 61.0 °F 93% 30.19 in 10.0 mi SSW 5.8 mph - N/A   Mostly Cloudy
1:53 AM 62.1 °F 60.1 °F 93% 30.18 in 10.0 mi South 4.6 mph - N/A   Mostly Cloudy
2:53 AM 62.1 °F 60.1 °F 93% 30.17 in 10.0 mi Calm Calm - N/A   Mostly Cloudy
3:53 AM 62.1 °F 60.1 °F 93% 30.16 in 10.0 mi SE 4.6 mph - N/A   Overcast
4:31 AM 60.1 °F 59.0 °F 96% 30.17 in 10.0 mi Calm Calm - N/A   Mostly Cloudy
4:53 AM 59.0 °F 57.9 °F 96% 30.16 in 10.0 mi Calm Calm - N/A   Scattered Clouds
5:53 AM 57.0 °F 57.0 °F 100% 30.17 in 10.0 mi Calm Calm - N/A   Scattered Clouds
6:26 AM 55.9 °F 55.9 °F 100% 30.18 in 8.0 mi Calm Calm - N/A   Partly Cloudy
6:31 AM 55.9 °F 55.9 °F 100% 30.18 in 8.0 mi Calm Calm - N/A   Scattered Clouds
6:32 AM 55.9 °F 55.9 °F 100% 30.18 in 8.0 mi Calm Calm - N/A   Scattered Clouds
6:53 AM 55.0 °F 55.0 °F 100% 30.18 in 8.0 mi Calm Calm - N/A Fog Patches of Fog
7:53 AM 60.1 °F 59.0 °F 96% 30.18 in 8.0 mi Calm Calm - N/A Fog Patches of Fog
8:53 AM 64.9 °F 61.0 °F 87% 30.18 in 9.0 mi SSE 6.9 mph - N/A   Partly Cloudy
9:06 AM 66.0 °F 62.1 °F 87% 30.19 in 10.0 mi SSE 8.1 mph - N/A   Scattered Clouds
9:53 AM 70.0 °F 62.1 °F 76% 30.18 in 10.0 mi SSE 11.5 mph - N/A   Scattered Clouds
10:53 AM 73.0 °F 61.0 °F 66% 30.15 in 10.0 mi South 9.2 mph - N/A   Scattered Clouds
11:53 AM 75.0 °F 61.0 °F 62% 30.13 in 10.0 mi SSW 11.5 mph - N/A   Scattered Clouds
12:53 PM 77.0 °F 61.0 °F 58% 30.08 in 10.0 mi South 13.8 mph 20.7 mph N/A   Mostly Cloudy
1:53 PM 78.1 °F 61.0 °F 56% 30.04 in 10.0 mi South 16.1 mph - N/A   Mostly Cloudy
2:53 PM 79.0 °F 61.0 °F 54% 30.02 in 10.0 mi South 10.4 mph 20.7 mph N/A   Mostly Cloudy
3:53 PM 77.0 °F 61.0 °F 58% 30.00 in 10.0 mi South 13.8 mph - N/A   Mostly Cloudy
4:53 PM 75.9 °F 61.0 °F 60% 29.99 in 10.0 mi South 10.4 mph - N/A   Mostly Cloudy
5:53 PM 73.9 °F 62.1 °F 66% 29.99 in 10.0 mi South 10.4 mph - N/A   Overcast
6:53 PM 73.0 °F 62.1 °F 68% 30.00 in 10.0 mi SSE 5.8 mph - N/A   Overcast
7:53 PM 72.0 °F 62.1 °F 71% 30.00 in 10.0 mi SSE 9.2 mph - N/A   Overcast
8:53 PM 69.1 °F 62.1 °F 78% 30.00 in 10.0 mi SSE 10.4 mph - N/A   Partly Cloudy
9:53 PM 68.0 °F 63.0 °F 84% 29.99 in 10.0 mi South 10.4 mph - N/A   Clear
10:53 PM 66.0 °F 64.0 °F 93% 29.98 in 10.0 mi South 13.8 mph - N/A   Partly Cloudy
11:28 PM 66.0 °F 64.9 °F 96% 30.00 in 10.0 mi South 10.4 mph - N/A   Mostly Cloudy
11:53 PM 66.0 °F 64.9 °F 96% 29.98 in 9.0 mi South 11.5 mph - N/A   Overcast